Date String (YYYY-MM-DD hh:mm:ss) UTC,Instrument flags,Ambient pressure (hPa),Sample flow (lpm),Bypass flow (lpm),Sample temperature (°C),Ambient temperature (°C),ASC tube jacket temperature (°C),LED temperature (°C),Box temperature (°C),Sample RH (%),Span deviation,Mass concentration (μg/m³),Mass concentration (μg/m³),Mass concentration (μg/m³)
DateTimeUTC,F1_M11,P_M11,Q1_M11,Q2_M11,T1_M11,T2_M11,T3_M11,T4_M11,T5_M11,U1_M11,ZSPAN_M11,X0_M11,X2_M11,X1_M11
2022-08-27 05:00:00,,0826.7,5.00,0.00,30.1,28.9,00.0,38.8,31.9,27.4,0000.0,0010.15,0004.71,0003.75
2022-08-27 05:01:00,,0826.7,5.00,0.00,30.1,29.0,00.0,38.8,32.0,27.2,0000.0,0010.53,0004.70,0003.74
2022-08-27 05:02:00,,0826.7,5.00,0.00,30.1,29.0,00.0,38.8,32.0,26.9,0000.0,0010.53,0004.68,0003.72
2022-08-27 05:03:00,,0826.7,5.00,0.00,30.1,29.1,00.0,38.9,32.0,26.9,0000.0,0010.53,0004.65,0003.71
2022-08-27 05:04:00,,0826.7,5.00,0.00,30.1,29.1,00.0,38.9,32.0,26.9,0000.0,0010.38,0004.61,0003.70
2022-08-27 05:05:00,,0826.7,5.00,0.00,30.2,29.1,00.0,38.9,32.0,26.9,0000.0,0010.59,0004.57,0003.68
2022-08-27 05:06:00,,0826.6,5.00,0.00,30.2,29.1,00.0,38.9,32.1,26.9,0000.0,0011.02,0004.51,0003.68
2022-08-27 05:07:00,,0826.7,5.00,0.00,30.2,29.2,00.0,38.9,32.1,26.4,0000.0,0010.65,0004.43,0003.67
2022-08-27 05:08:00,,0826.7,5.00,0.00,30.2,29.2,00.0,39.0,32.1,26.0,0000.0,0010.44,0004.37,0003.67
2022-08-27 05:09:00,,0826.7,5.00,0.00,30.3,29.2,00.0,39.0,32.1,25.8,0000.0,0010.52,0004.33,0003.67
2022-08-27 05:10:00,,0826.7,5.01,0.00,30.3,29.2,00.0,39.0,32.1,25.8,0000.0,0010.68,0004.28,0003.68
2022-08-27 05:11:00,,0826.7,5.00,0.00,30.3,29.2,00.0,39.0,32.2,25.8,0000.0,0011.22,0004.26,0003.68
2022-08-27 05:12:00,,0826.7,5.00,0.00,30.3,28.7,00.0,39.0,32.1,26.0,0000.0,0011.06,0004.26,0003.66
2022-08-27 05:13:00,,0826.7,5.01,0.00,30.3,27.4,00.0,39.0,32.1,25.9,0000.0,0011.07,0004.21,0003.66
2022-08-27 05:14:00,,0826.7,5.00,0.00,30.2,26.9,00.0,38.9,32.0,26.0,0000.0,0011.01,0004.18,0003.65
2022-08-27 05:15:00,,0826.7,4.99,0.00,30.1,27.1,00.0,38.9,31.8,26.2,0000.0,0010.92,0004.17,0003.64
2022-08-27 05:16:00,,0826.7,5.00,0.00,30.1,27.4,00.0,38.9,31.7,26.2,0000.0,0010.50,0004.11,0003.63
2022-08-27 05:17:00,,0826.7,5.01,0.00,30.0,27.7,00.0,38.8,31.7,26.3,0000.0,0009.99,0004.12,0003.62
2022-08-27 05:18:00,,0826.6,4.99,0.00,30.0,27.9,00.0,38.8,31.7,26.6,0000.0,0010.09,0004.13,0003.63
2022-08-27 05:19:00,,0826.7,4.99,0.00,30.0,28.1,00.0,38.8,31.8,26.5,0000.0,0010.20,0004.16,0003.63
2022-08-27 05:20:00,,0826.7,5.00,0.00,30.0,28.3,00.0,38.8,31.7,26.3,0000.0,0009.81,0004.17,0003.63
2022-08-27 05:21:00,,0826.7,4.99,0.00,30.0,28.4,00.0,38.8,31.8,26.5,0000.0,0009.25,0004.17,0003.61
2022-08-27 05:22:00,,0826.7,5.01,0.00,30.0,28.5,00.0,38.8,31.8,26.3,0000.0,0008.54,0004.21,0003.60
2022-08-27 05:23:00,,0826.6,5.00,0.00,30.0,28.6,00.0,38.8,31.8,25.9,0000.0,0008.42,0004.22,0003.61
2022-08-27 05:24:00,,0826.6,5.01,0.00,30.0,28.7,00.0,38.8,31.9,26.4,0000.0,0008.43,0004.24,0003.61
2022-08-27 05:25:00,,0826.5,5.00,0.00,30.0,28.8,00.0,38.8,31.9,26.3,0000.0,0008.39,0004.25,0003.61
2022-08-27 05:26:00,,0826.5,4.99,0.00,30.0,28.8,00.0,38.8,31.9,26.2,0000.0,0008.28,0004.22,0003.62
2022-08-27 05:27:00,,0826.4,5.01,0.00,30.0,28.9,00.0,38.8,31.9,26.1,0000.0,0008.10,0004.22,0003.63
2022-08-27 05:28:00,,0826.5,4.99,0.00,30.1,28.9,00.0,38.8,31.9,26.0,0000.0,0007.83,0004.18,0003.63
2022-08-27 05:29:00,,0826.5,4.99,0.00,30.1,28.9,00.0,38.8,32.0,25.9,0000.0,0007.72,0004.18,0003.62
2022-08-27 05:30:00,,0826.5,5.01,0.00,30.1,29.0,00.0,38.9,32.0,25.8,0000.0,0007.59,0004.14,0003.61
2022-08-27 05:31:00,,0826.5,5.00,0.00,30.1,29.0,00.0,38.9,32.0,25.9,0000.0,0007.57,0004.12,0003.62
2022-08-27 05:32:00,,0826.4,5.00,0.00,30.1,29.0,00.0,38.9,32.0,26.0,0000.0,0007.49,0004.12,0003.64
2022-08-27 05:33:00,,0826.5,5.01,0.00,30.2,29.1,00.0,38.9,32.0,25.9,0000.0,0007.39,0004.08,0003.65
2022-08-27 05:34:00,,0826.5,4.99,0.00,30.2,29.1,00.0,38.9,32.0,25.8,0000.0,0007.20,0004.05,0003.65
2022-08-27 05:35:00,,0826.4,5.00,0.00,30.2,29.1,00.0,38.9,32.1,25.8,0000.0,0007.29,0004.02,0003.65
2022-08-27 05:36:00,,0826.4,5.00,0.00,30.2,29.1,00.0,39.0,32.1,25.7,0000.0,0008.17,0004.06,0003.66
2022-08-27 05:37:00,,0826.4,5.00,0.00,30.2,29.2,00.0,39.0,32.1,25.7,0000.0,0008.75,0004.14,0003.66
2022-08-27 05:38:00,,0826.4,5.00,0.00,30.3,29.2,00.0,39.0,32.1,25.6,0000.0,0009.21,0004.14,0003.66
2022-08-27 05:39:00,,0826.4,5.00,0.00,30.3,29.2,00.0,39.0,32.1,25.5,0000.0,0009.48,0004.19,0003.66
2022-08-27 05:40:00,,0826.3,5.00,0.00,30.3,29.2,00.0,39.0,32.1,25.4,0000.0,0009.78,0004.24,0003.67
2022-08-27 05:41:00,,0826.3,5.00,0.00,30.3,29.2,00.0,39.0,32.1,25.4,0000.0,0009.91,0004.27,0003.67
2022-08-27 05:42:00,,0826.2,5.01,0.00,30.3,29.2,00.0,39.1,32.2,25.5,0000.0,0009.81,0004.31,0003.67
2022-08-27 05:43:00,,0826.2,5.01,0.00,30.3,29.3,00.0,39.1,32.2,25.5,0000.0,0009.78,0004.30,0003.66
2022-08-27 05:44:00,,0826.3,5.00,0.00,30.4,29.3,00.0,39.1,32.2,25.4,0000.0,0009.73,0004.28,0003.64
2022-08-27 05:45:00,,0826.3,4.99,0.00,30.4,28.6,00.0,39.1,32.2,25.5,0000.0,0009.83,0004.31,0003.65
2022-08-27 05:46:00,,0826.2,5.01,0.00,30.3,27.2,00.0,39.1,32.1,25.5,0000.0,0009.51,0004.32,0003.64
2022-08-27 05:47:00,,0826.2,5.01,0.00,30.3,26.8,00.0,39.0,32.0,25.6,0000.0,0008.84,0004.31,0003.64
2022-08-27 05:48:00,,0826.2,4.99,0.00,30.2,26.9,00.0,39.0,31.8,25.9,0000.0,0008.41,0004.28,0003.65
2022-08-27 05:49:00,,0826.2,5.01,0.00,30.1,27.3,00.0,38.9,31.7,25.9,0000.0,0008.06,0004.29,0003.66
2022-08-27 05:50:00,,0826.2,5.00,0.00,30.1,27.6,00.0,38.9,31.7,25.9,0000.0,0007.97,0004.26,0003.66
2022-08-27 05:51:00,,0826.2,4.99,0.00,30.0,27.9,00.0,38.9,31.7,26.0,0000.0,0007.78,0004.22,0003.66
2022-08-27 05:52:00,,0826.2,5.00,0.00,30.0,28.1,00.0,38.9,31.7,25.8,0000.0,0007.67,0004.20,0003.66
2022-08-27 05:53:00,,0826.2,5.00,0.00,30.0,28.2,00.0,38.8,31.8,25.8,0000.0,0007.61,0004.17,0003.66
2022-08-27 05:54:00,,0826.2,5.00,0.00,30.0,28.4,00.0,38.8,31.8,25.8,0000.0,0007.67,0004.19,0003.67
2022-08-27 05:55:00,,0826.2,5.00,0.00,30.0,28.5,00.0,38.8,31.8,25.8,0000.0,0007.72,0004.21,0003.67
2022-08-27 05:56:00,,0826.1,5.00,0.00,30.0,28.6,00.0,38.8,31.8,25.8,0000.0,0007.60,0004.18,0003.66
2022-08-27 05:57:00,,0826.0,5.00,0.00,30.0,28.7,00.0,38.8,31.8,25.7,0000.0,0007.61,0004.18,0003.66
2022-08-27 05:58:00,,0826.0,5.00,0.00,30.0,28.7,00.0,38.8,31.9,25.7,0000.0,0007.53,0004.17,0003.64
2022-08-27 05:59:00,,0826.0,4.99,0.00,30.0,28.8,00.0,38.8,31.9,25.6,0000.0,0007.37,0004.14,0003.63
